Flag for U.S.A. Weather past 2 weeks in Pensacola, Florida, U.S.A.

Now
66 °F

Passing clouds.


Feels Like: 66 °F
Forecast: 62 / 83 °F
Wind: 7 mph from North

Location: Pensacola Regional Airport

Current Time: May 22, 2015 at 5:46:29 AM

Latest Report: May 22, 2015 at 4:53 AM


Visibility: 10 mi

Pressure: 30.09 "Hg

Humidity: 84%

Dew point: 61 °F

Location of PensacolaLocation

Historic Weather in Pensacola — Graph

°F

Pensacola temperature yesterday

Maximum temperature yesterday: 87 °F (at 12:53 PM)
Minimum temperature yesterday: 71 °F (at 12:53 AM)
Average temperature yesterday: 77 °F

Past Weeks' High & Low Weather Summary

 TemperatureHumidityPressure
High88 °F (May 13, 2:53 PM)100% (May 18, 3:53 AM)30.22 "Hg (May 18, 3:53 AM)
Low64 °F (May 7, 4:53 AM)35% (May 8, 12:53 PM)29.94 "Hg (May 20, 4:53 PM)
Average77 °F76%30.09 "Hg
* Reported May 7 3:53 AM — May 22 3:53 AM, Pensacola, Weather by CustomWeather, © 2015

Note: Actual official high and low records may vary slightly from our data, if they occured in-between our weather recording intervals... More about our weather records

Advertising

Pensacola weather history for previous 24 hours

 ConditionsComfort  
Time TempWeatherWind HumidityBarometerVisibility
3:53 AM
Fri, May 22
68 °FPassing clouds.10 mph82%30.08 "Hg10 mi
2:53 AM69 °FClear.10 mph81%30.06 "Hg10 mi
1:53 AM71 °FPassing clouds.8 mph81%30.05 "Hg10 mi
12:53 AM73 °FClear.9 mph79%30.03 "Hg10 mi
11:53 PM
Thu, May 21
74 °FClear.5 mph76%30.04 "Hg10 mi
10:53 PM74 °FClear.5 mph79%30.07 "Hg10 mi
9:53 PM75 °FLight rain. Mostly cloudy.5 mph82%30.07 "Hg10 mi
8:53 PM77 °FPartly cloudy.5 mph77%30.04 "Hg10 mi
7:53 PM77 °FThundershowers. Mostly cloudy.6 mph90%30.02 "Hg10 mi
6:53 PM80 °FThunderstorms. Partly sunny.7 mph76%29.98 "Hg10 mi
5:53 PM78 °FSunny.5 mph79%29.97 "Hg10 mi
4:53 PM75 °FStrong thunderstorms. Cloudy.12 mph79%29.98 "Hg3 mi
3:53 PM80 °FHeavy rain. Broken clouds.16 mph81%29.97 "Hg5 mi
2:53 PM84 °FPartly sunny.8 mph67%29.98 "Hg10 mi
1:53 PM85 °FScattered clouds.12 mph65%30.00 "Hg10 mi
12:53 PM87 °FScattered clouds.7 mph57%30.01 "Hg10 mi
11:53 AM85 °FSunny.8 mph63%30.02 "Hg10 mi
10:53 AM82 °FSunny.7 mph70%30.03 "Hg10 mi
9:53 AM81 °FSunny.6 mph72%30.02 "Hg10 mi
8:53 AM79 °FSunny.9 mph72%30.03 "Hg10 mi
7:53 AM74 °FSunny.7 mph79%30.02 "Hg10 mi
6:53 AM71 °FSunny.8 mph87%30.01 "Hg10 mi
5:53 AM72 °FSunny.8 mph91%30.00 "Hg10 mi
Weather by CustomWeather, © 2015

See weather overviewHow to use our weather pages